sat.trackr.live / text

‹ back to catalog

STARLINK-37715

NORAD 69126 · 2026-110C

PAYLOAD ACTIVE UNKNOWN

§ Identity

Operator
Country
US
Launch date
2026-05-20
Launch site
AFWTR
Launch vehicle
Mass (kg)
RCS (m²)

Purposes: comms

External: N2YO · Heavens-Above · Gunter

§ Orbital elements

Epoch: 2026-09-19T23:44:58.240608Z

Period
93.91 min
Inclination
97.2863°
Eccentricity
0.0001078
Mean motion
15.33448154 rev/d
Perigee alt
464.8 km
Apogee alt
466.3 km
Semi-major
6,843.7 km
B*
4.1194e-4
RAAN
97.9929°
Arg perigee
75.8934°
Mean anomaly
284.2428°
Rev number
2,013

§ Raw data

STARLINK-377151 69126U 26110C   26262.98956297  .00013248  00000+0  41194-3 0  99962 69126  97.2863  97.9929 0001078  75.8934 284.2428 15.33448154 20132

JSON: /api/v1/satellites/69126 · /tle

For live sub-satellite position, see the globe view (requires WebGL).

§ Visibility from observer

Set your observer location to see the next 7 days of passes ≥ 10°. The values pass through the URL so the page stays shareable.

No JS? Fill the form by hand. The geolocation button needs JavaScript.